• In Uzbekistan
  • List of Countries
  • For 7 days
  • Water Temperature
  • Satellite Maps
  • Weather Map
  • Weather Widgets
  • user-avatar
    Login

    Hourly Weather Campos do Jordao

    Today, 18 February, Sunday

    Time Temperature Precipitation Wind Pressure Humidity
    00:00 +14°C° 0 mm 1 mps 629 mmHg 96%
    01:00 +13°C° 0 mm 1 mps 629 mmHg 96%
    02:00 +12°C° 0 mm 0 mps 629 mmHg 96%
    03:00 +12°C° 0 mm 0 mps 628 mmHg 96%
    04:00 +12°C° 0 mm 0 mps 628 mmHg 96%
    05:00 +12°C° 0 mm 0 mps 628 mmHg 96%
    06:00 +13°C° 0 mm 1 mps 628 mmHg 96%
    07:00 +14°C° 0.1 mm 1 mps 629 mmHg 90%
    08:00 +16°C° 0.1 mm 1 mps 629 mmHg 83%
    09:00 +19°C° 0.1 mm 1 mps 630 mmHg 77%
    10:00 +20°C° 0.6 mm 1 mps 630 mmHg 76%
    11:00 +21°C° 0.6 mm 1 mps 630 mmHg 75%
    12:00 +21°C° 0.6 mm 1 mps 630 mmHg 74%
    13:00 +21°C° 1.1 mm 1 mps 629 mmHg 76%
    14:00 +21°C° 1.1 mm 1 mps 629 mmHg 79%
    15:00 +20°C° 1.1 mm 1 mps 628 mmHg 81%
    16:00 +19°C° 1 mm 1 mps 628 mmHg 84%
    17:00 +19°C° 1 mm 1 mps 628 mmHg 87%
    18:00 +18°C° 1 mm 1 mps 627 mmHg 91%
    19:00 +16°C° 0.3 mm 1 mps 627 mmHg 92%
    20:00 +15°C° 0.3 mm 1 mps 627 mmHg 93%
    21:00 +14°C° 0.3 mm 1 mps 627 mmHg 94%
    22:00 +14°C° 0.2 mm 1 mps 627 mmHg 94%
    23:00 +14°C° 0.2 mm 1 mps 627 mmHg 94%

    Tomorrow, 19 February, Monday

    Time Temperature Precipitation Wind Pressure Humidity
    00:00 +14°C° 0.2 mm 1 mps 627 mmHg 95%
    01:00 +14°C° 0.1 mm 1 mps 626 mmHg 94%
    02:00 +14°C° 0.1 mm 1 mps 626 mmHg 94%
    03:00 +13°C° 0.1 mm 1 mps 625 mmHg 94%
    04:00 +13°C° 0.1 mm 1 mps 626 mmHg 94%
    05:00 +13°C° 0.1 mm 1 mps 626 mmHg 94%
    06:00 +13°C° 0.1 mm 1 mps 626 mmHg 93%
    07:00 +15°C° 0 mm 1 mps 627 mmHg 88%
    08:00 +16°C° 0 mm 1 mps 627 mmHg 83%
    09:00 +18°C° 0 mm 2 mps 628 mmHg 78%
    10:00 +19°C° 0.4 mm 2 mps 628 mmHg 77%
    11:00 +20°C° 0.4 mm 2 mps 628 mmHg 76%
    12:00 +21°C° 0.4 mm 2 mps 628 mmHg 75%
    13:00 +20°C° 1 mm 2 mps 628 mmHg 78%
    14:00 +21°C° 1 mm 1 mps 627 mmHg 80%
    15:00 +20°C° 1 mm 1 mps 627 mmHg 83%
    16:00 +20°C° 0.8 mm 1 mps 627 mmHg 86%
    17:00 +17°C° 0.8 mm 0 mps 626 mmHg 88%
    18:00 +16°C° 0.8 mm 0 mps 626 mmHg 91%
    19:00 +15°C° 0.2 mm 0 mps 626 mmHg 92%
    20:00 +16°C° 0.2 mm 1 mps 626 mmHg 93%
    21:00 +15°C° 0.2 mm 1 mps 627 mmHg 94%
    22:00 +15°C° 0.2 mm 1 mps 626 mmHg 95%
    23:00 +15°C° 0.2 mm 1 mps 626 mmHg 95%

    Day after tomorrow, 20 February, Tuesday

    Time Temperature Precipitation Wind Pressure Humidity
    00:00 +15°C° 0.2 mm 1 mps 626 mmHg 95%
    01:00 +15°C° 0.2 mm 1 mps 626 mmHg 95%
    02:00 +14°C° 0.2 mm 1 mps 625 mmHg 95%
    03:00 +14°C° 0.2 mm 1 mps 625 mmHg 95%
    04:00 +14°C° 0.1 mm 1 mps 625 mmHg 95%
    05:00 +14°C° 0.1 mm 1 mps 625 mmHg 95%
    06:00 +14°C° 0.1 mm 1 mps 626 mmHg 95%
    07:00 +16°C° 0 mm 1 mps 626 mmHg 91%
    08:00 +18°C° 0 mm 1 mps 627 mmHg 86%
    09:00 +19°C° 0 mm 1 mps 628 mmHg 82%
    10:00 +20°C° 0.3 mm 1 mps 628 mmHg 78%
    11:00 +20°C° 0.3 mm 2 mps 628 mmHg 75%
    12:00 +21°C° 0.3 mm 2 mps 628 mmHg 71%
    13:00 +23°C° 0.7 mm 1 mps 628 mmHg 72%
    14:00 +23°C° 0.7 mm 1 mps 627 mmHg 73%
    15:00 +23°C° 0.7 mm 1 mps 627 mmHg 73%
    16:00 +22°C° 1 mm 1 mps 627 mmHg 78%
    17:00 +21°C° 1 mm 1 mps 626 mmHg 83%
    18:00 +18°C° 1 mm 0 mps 626 mmHg 88%
    19:00 +17°C° 0.9 mm 0 mps 626 mmHg 89%
    20:00 +16°C° 0.9 mm 0 mps 626 mmHg 91%
    21:00 +15°C° 0.9 mm 0 mps 626 mmHg 92%
    22:00 +16°C° 0.2 mm 1 mps 626 mmHg 93%
    23:00 +15°C° 0.2 mm 1 mps 626 mmHg 93%

    21 February, Wednesday

    Time Temperature Precipitation Wind Pressure Humidity
    00:00 +15°C° 0.2 mm 1 mps 626 mmHg 94%
    01:00 +15°C° 0 mm 1 mps 625 mmHg 94%
    02:00 +15°C° 0 mm 1 mps 625 mmHg 93%
    03:00 +15°C° 0 mm 1 mps 625 mmHg 93%
    04:00 +15°C° 0 mm 1 mps 625 mmHg 93%
    05:00 +15°C° 0 mm 1 mps 625 mmHg 93%
    06:00 +15°C° 0 mm 1 mps 625 mmHg 93%
    07:00 +16°C° 0.1 mm 1 mps 626 mmHg 90%
    08:00 +18°C° 0.1 mm 1 mps 627 mmHg 87%
    09:00 +19°C° 0.1 mm 1 mps 628 mmHg 84%
    10:00 +19°C° 0.1 mm 2 mps 628 mmHg 79%
    11:00 +20°C° 0.1 mm 2 mps 628 mmHg 75%
    12:00 +21°C° 0.1 mm 2 mps 628 mmHg 70%
    13:00 +21°C° 0.3 mm 2 mps 627 mmHg 71%
    14:00 +23°C° 0.3 mm 2 mps 627 mmHg 71%
    15:00 +23°C° 0.3 mm 2 mps 626 mmHg 72%
    16:00 +21°C° 0.5 mm 2 mps 626 mmHg 77%
    17:00 +21°C° 0.5 mm 1 mps 626 mmHg 82%
    18:00 +20°C° 0.5 mm 1 mps 625 mmHg 87%
    19:00 +19°C° 0.4 mm 1 mps 625 mmHg 88%
    20:00 +18°C° 0.4 mm 1 mps 625 mmHg 90%
    21:00 +16°C° 0.4 mm 1 mps 625 mmHg 92%
    22:00 +16°C° 0.3 mm 1 mps 625 mmHg 92%
    23:00 +16°C° 0.3 mm 1 mps 625 mmHg 92%

    22 February, Thursday

    Time Temperature Precipitation Wind Pressure Humidity
    00:00 +16°C° 0.3 mm 1 mps 625 mmHg 92%
    01:00 +15°C° 0.1 mm 1 mps 625 mmHg 92%
    02:00 +15°C° 0.1 mm 1 mps 624 mmHg 93%
    03:00 +15°C° 0.1 mm 1 mps 624 mmHg 93%
    04:00 +14°C° 0.2 mm 0 mps 624 mmHg 93%
    05:00 +14°C° 0.2 mm 0 mps 625 mmHg 93%
    06:00 +14°C° 0.2 mm 0 mps 625 mmHg 93%
    07:00 +16°C° 0.4 mm 1 mps 626 mmHg 92%
    08:00 +18°C° 0.4 mm 1 mps 627 mmHg 90%
    09:00 +19°C° 0.4 mm 1 mps 627 mmHg 88%
    10:00 +19°C° 0.6 mm 1 mps 627 mmHg 85%
    11:00 +20°C° 0.6 mm 1 mps 628 mmHg 81%
    12:00 +21°C° 0.6 mm 1 mps 628 mmHg 78%
    13:00 +21°C° 1.2 mm 1 mps 627 mmHg 81%
    14:00 +20°C° 1.2 mm 1 mps 627 mmHg 84%
    15:00 +20°C° 1.2 mm 1 mps 627 mmHg 86%
    16:00 +19°C° 1.4 mm 1 mps 627 mmHg 89%
    17:00 +18°C° 1.4 mm 1 mps 627 mmHg 92%
    18:00 +16°C° 1.4 mm 1 mps 626 mmHg 95%
    19:00 +16°C° 0.5 mm 1 mps 627 mmHg 96%
    20:00 +16°C° 0.5 mm 1 mps 627 mmHg 96%
    21:00 +15°C° 0.5 mm 1 mps 627 mmHg 97%
    22:00 +15°C° 0.2 mm 1 mps 627 mmHg 97%
    23:00 +15°C° 0.2 mm 1 mps 627 mmHg 97%

    23 February, Friday

    Time Temperature Precipitation Wind Pressure Humidity
    00:00 +15°C° 0.2 mm 1 mps 627 mmHg 97%
    01:00 +15°C° 0.2 mm 1 mps 627 mmHg 97%
    02:00 +15°C° 0.2 mm 1 mps 626 mmHg 97%
    03:00 +14°C° 0.2 mm 1 mps 626 mmHg 97%
    04:00 +14°C° 0.3 mm 1 mps 626 mmHg 97%
    05:00 +14°C° 0.3 mm 1 mps 626 mmHg 97%
    06:00 +14°C° 0.3 mm 1 mps 627 mmHg 97%
    07:00 +15°C° 0.4 mm 1 mps 627 mmHg 96%
    08:00 +15°C° 0.4 mm 1 mps 627 mmHg 95%
    09:00 +15°C° 0.4 mm 1 mps 628 mmHg 94%
    10:00 +16°C° 0.2 mm 1 mps 628 mmHg 91%
    11:00 +18°C° 0.2 mm 1 mps 628 mmHg 88%
    12:00 +19°C° 0.2 mm 1 mps 628 mmHg 85%
    13:00 +18°C° 0.1 mm 2 mps 628 mmHg 84%
    14:00 +18°C° 0.1 mm 2 mps 628 mmHg 83%
    15:00 +18°C° 0.1 mm 2 mps 628 mmHg 82%
    16:00 +17°C° 0.1 mm 2 mps 628 mmHg 85%
    17:00 +16°C° 0.1 mm 2 mps 627 mmHg 88%
    18:00 +16°C° 0.1 mm 2 mps 627 mmHg 91%
    19:00 +15°C° 0 mm 1 mps 627 mmHg 92%
    20:00 +14°C° 0 mm 1 mps 627 mmHg 94%
    21:00 +14°C° 0 mm 1 mps 627 mmHg 95%
    22:00 +13°C° 0 mm 1 mps 627 mmHg 95%
    23:00 +13°C° 0 mm 1 mps 627 mmHg 96%
    Show more